DELTA 1 DEB, 48088

Orbit data source: Space-Track

DELTA 1 DEB, 48088 is space debris in SSO originally from a launch on Thu, 29 Jul 1976 UTC launched from the Air Force Western Test Range (AFWTR). Debris objects in space refer to the collection of defunct objects orbiting the Earth. Examples of debris include non-operational satellites, rocket bodies, and fragments generated from explosions, collisions, or faulty payload assembly.

Loading next visibility...
Identifier
48088, 1976-077GT
Orbit
SSO
Country
Flag of USUS
Related business
Manufacturer
Unknown
Mission
Spacecraft
Bus & Motor
Unknown
Mass
Unknown
Launch date (UTC)
1976-07-29 (50 years ago)
Launch vehicle
Unknown
Launch site
Air Force Western Test Range (AFWTR)
Object type
Payload
Rocket body
Debris
Shape & HBR
Unknown shape, 0.1 m
Radar Cross Section
Small (<0.1 m²)

Expand to show TLE details & history
Last TLE update: 2 days ago

TLE from 2 days ago
0 DELTA 1 DEB
1 48088U 76077GT  26170.99505972 -.00000041  00000-0  18319-4 0  9999
2 48088 102.0569 202.3583 0115287 341.7213 132.0871 12.19250242559842
Epoch: 2026-06-19T23:52Z
TLE epoch observation values (Epoch: 2026-06-19T23:52:53.159Z)
Latitude
62.69678°
Longitude
140.23824°
Altitude
1,668.578 km
Speed
7.017 km/s
True Right ascension
03h 06m 42s
True Declination
62° 34' 20"
Sunlit
Object was in daylight at epoch
Visualization orbit readout
Latitude
Unknown
Longitude
Unknown
Altitude
Unknown
Speed
Unknown
Apparent Right ascension
Unknown
Apparent Declination
Unknown
Sunlit
N/A
Visualization observer readout
Local Sidereal Time
21:43:11
Azimuth
Unknown
Elevation
Unknown
Doppler factor
Unknown
Orbital elements
Apogee altitude
1,685.315 km
Perigee altitude
1,501.512 km
Semi-major axis
7,971.551 km
Eccentricity
0.01153
Inclination
102.0569°
RAAN
202.3583°
Arg. of periapsis
341.7213°
True anomaly
133.05809°
Mean anomaly
132.0871°
Eccentric anomaly
132.57353°
Mean motion
3.0495 °/min
Orbital period
118.05 mins
BSTAR
0.000018319
Loading maneuver chart data...
Computing Atmospheric mass density...
Loading historical data...
Loading historical data...
Loading historical data...
Loading historical data...
Loading historical data...
Loading historical data...
Loading historical data...

Documentation

Showing up to 5 results
|